When you browse on this site, cookies collect data to enhance your experience and personalize the content and advertising you see.
Visit our Privacy Policy to learn more. By continuing to use the site, you agree to this use of cookies and data.
  • In Spain
  • List of Countries
  • For 7 days
  • Water Temperature
  • Weather Map
  • Weather Widgets
  • user-avatar
    Login

    Hourly Weather Zdolbunov

    Today, 10 April, Friday

    Time Temperature Precipitation Wind Pressure Humidity
    00:00 +11°C° 0 mm 3 mps 743 mmHg 65%
    01:00 +10°C° 0 mm 3 mps 744 mmHg 72%
    02:00 +10°C° 0 mm 3 mps 744 mmHg 77%
    03:00 +8°C° 0.1 mm 4 mps 744 mmHg 77%
    04:00 +8°C° 0.1 mm 4 mps 744 mmHg 78%
    05:00 +8°C° 0.1 mm 5 mps 744 mmHg 78%
    06:00 +7°C° 0 mm 5 mps 745 mmHg 77%
    07:00 +7°C° 0 mm 6 mps 745 mmHg 75%
    08:00 +5°C° 0 mm 7 mps 746 mmHg 74%
    09:00 +6°C° 0 mm 7 mps 746 mmHg 68%
    10:00 +6°C° 0 mm 7 mps 747 mmHg 62%
    11:00 +8°C° 0 mm 7 mps 747 mmHg 56%
    12:00 +8°C° 0 mm 7 mps 747 mmHg 50%
    13:00 +9°C° 0 mm 7 mps 747 mmHg 43%
    14:00 +9°C° 0 mm 6 mps 748 mmHg 36%
    15:00 +9°C° 0 mm 6 mps 748 mmHg 36%
    16:00 +9°C° 0 mm 6 mps 747 mmHg 37%
    17:00 +9°C° 0 mm 6 mps 747 mmHg 37%
    18:00 +7°C° 0 mm 5 mps 748 mmHg 41%
    19:00 +6°C° 0 mm 4 mps 748 mmHg 46%
    20:00 +6°C° 0 mm 2 mps 748 mmHg 50%
    21:00 +5°C° 0 mm 2 mps 748 mmHg 52%
    22:00 +5°C° 0 mm 2 mps 748 mmHg 53%
    23:00 +5°C° 0 mm 1 mps 748 mmHg 55%

    Tomorrow, 11 April, Saturday

    Time Temperature Precipitation Wind Pressure Humidity
    00:00 +4°C° 0 mm 2 mps 748 mmHg 56%
    01:00 +4°C° 0 mm 2 mps 748 mmHg 57%
    02:00 +4°C° 0 mm 2 mps 749 mmHg 58%
    03:00 +3°C° 0 mm 2 mps 748 mmHg 60%
    04:00 +3°C° 0 mm 2 mps 748 mmHg 62%
    05:00 +3°C° 0 mm 2 mps 748 mmHg 63%
    06:00 +4°C° 0 mm 2 mps 749 mmHg 61%
    07:00 +4°C° 0 mm 3 mps 749 mmHg 58%
    08:00 +5°C° 0 mm 3 mps 749 mmHg 55%
    09:00 +8°C° 0 mm 3 mps 749 mmHg 51%
    10:00 +8°C° 0 mm 4 mps 750 mmHg 48%
    11:00 +10°C° 0 mm 4 mps 750 mmHg 44%
    12:00 +11°C° 0 mm 4 mps 750 mmHg 41%
    13:00 +10°C° 0 mm 5 mps 750 mmHg 39%
    14:00 +10°C° 0 mm 5 mps 750 mmHg 36%
    15:00 +10°C° 0 mm 5 mps 750 mmHg 36%
    16:00 +10°C° 0 mm 5 mps 750 mmHg 36%
    17:00 +9°C° 0 mm 5 mps 750 mmHg 36%
    18:00 +8°C° 0 mm 4 mps 751 mmHg 41%
    19:00 +7°C° 0 mm 3 mps 751 mmHg 45%
    20:00 +6°C° 0 mm 2 mps 751 mmHg 50%
    21:00 +5°C° 0 mm 2 mps 752 mmHg 52%
    22:00 +4°C° 0 mm 2 mps 752 mmHg 54%
    23:00 +4°C° 0 mm 2 mps 752 mmHg 56%

    Day after tomorrow, 12 April, Sunday

    Time Temperature Precipitation Wind Pressure Humidity
    00:00 +4°C° 0 mm 1 mps 752 mmHg 57%
    01:00 +4°C° 0 mm 1 mps 752 mmHg 57%
    02:00 +3°C° 0 mm 1 mps 752 mmHg 58%
    03:00 +2°C° 0 mm 2 mps 752 mmHg 58%
    04:00 +2°C° 0 mm 2 mps 752 mmHg 58%
    05:00 +2°C° 0 mm 2 mps 752 mmHg 58%
    06:00 +3°C° 0 mm 2 mps 752 mmHg 56%
    07:00 +3°C° 0 mm 3 mps 752 mmHg 53%
    08:00 +4°C° 0 mm 3 mps 752 mmHg 51%
    09:00 +5°C° 0 mm 3 mps 751 mmHg 47%
    10:00 +8°C° 0 mm 3 mps 751 mmHg 44%
    11:00 +9°C° 0 mm 3 mps 751 mmHg 40%
    12:00 +10°C° 0 mm 3 mps 750 mmHg 38%
    13:00 +11°C° 0 mm 3 mps 750 mmHg 37%
    14:00 +12°C° 0 mm 3 mps 749 mmHg 35%
    15:00 +12°C° 0 mm 3 mps 749 mmHg 37%
    16:00 +12°C° 0 mm 3 mps 748 mmHg 39%
    17:00 +12°C° 0 mm 3 mps 747 mmHg 41%
    18:00 +11°C° 0 mm 3 mps 747 mmHg 47%
    19:00 +10°C° 0 mm 3 mps 746 mmHg 53%
    20:00 +8°C° 0 mm 3 mps 746 mmHg 60%
    21:00 +8°C° 0 mm 3 mps 746 mmHg 63%
    22:00 +7°C° 0 mm 3 mps 746 mmHg 66%
    23:00 +7°C° 0 mm 3 mps 745 mmHg 69%

    13 April, Monday

    Time Temperature Precipitation Wind Pressure Humidity
    00:00 +7°C° 0 mm 3 mps 745 mmHg 71%
    01:00 +7°C° 0 mm 3 mps 744 mmHg 72%
    02:00 +7°C° 0 mm 3 mps 744 mmHg 74%
    03:00 +5°C° 0 mm 3 mps 744 mmHg 76%
    04:00 +5°C° 0 mm 3 mps 743 mmHg 78%
    05:00 +5°C° 0 mm 3 mps 743 mmHg 80%
    06:00 +7°C° 0 mm 4 mps 742 mmHg 74%
    07:00 +8°C° 0 mm 5 mps 742 mmHg 68%
    08:00 +10°C° 0 mm 5 mps 742 mmHg 62%
    09:00 +13°C° 0 mm 6 mps 741 mmHg 58%
    10:00 +14°C° 0 mm 6 mps 741 mmHg 53%
    11:00 +16°C° 0 mm 6 mps 741 mmHg 49%
    12:00 +17°C° 0 mm 7 mps 740 mmHg 47%
    13:00 +17°C° 0 mm 7 mps 740 mmHg 45%
    14:00 +18°C° 0 mm 7 mps 739 mmHg 43%
    15:00 +17°C° 0.1 mm 6 mps 739 mmHg 48%
    16:00 +16°C° 0.1 mm 6 mps 738 mmHg 53%
    17:00 +15°C° 0.1 mm 6 mps 737 mmHg 58%
    18:00 +14°C° 0.1 mm 6 mps 736 mmHg 61%
    19:00 +14°C° 0.1 mm 5 mps 736 mmHg 63%
    20:00 +13°C° 0.1 mm 5 mps 735 mmHg 66%
    21:00 +12°C° 0 mm 5 mps 735 mmHg 66%
    22:00 +12°C° 0 mm 5 mps 734 mmHg 66%
    23:00 +11°C° 0 mm 6 mps 734 mmHg 66%

    14 April, Tuesday

    Time Temperature Precipitation Wind Pressure Humidity
    00:00 +10°C° 0.1 mm 5 mps 733 mmHg 71%
    01:00 +10°C° 0.1 mm 5 mps 733 mmHg 77%
    02:00 +9°C° 0.1 mm 5 mps 733 mmHg 83%
    03:00 +8°C° 0.4 mm 6 mps 733 mmHg 84%
    04:00 +5°C° 0.4 mm 6 mps 734 mmHg 85%
    05:00 +4°C° 0.4 mm 7 mps 734 mmHg 86%
    06:00 +3°C° 0.2 mm 7 mps 735 mmHg 83%
    07:00 +2°C° 0.2 mm 7 mps 736 mmHg 80%
    08:00 -1°C° 0.2 mm 7 mps 737 mmHg 77%
    09:00 0°C° 0 mm 7 mps 738 mmHg 67%
    10:00 0°C° 0 mm 7 mps 739 mmHg 58%
    11:00 +2°C° 0 mm 7 mps 739 mmHg 48%
    12:00 +3°C° 0 mm 6 mps 740 mmHg 46%
    13:00 +3°C° 0 mm 6 mps 740 mmHg 43%
    14:00 +4°C° 0 mm 6 mps 740 mmHg 40%
    15:00 +4°C° 0 mm 6 mps 740 mmHg 39%
    16:00 +4°C° 0 mm 6 mps 740 mmHg 39%
    17:00 +4°C° 0 mm 7 mps 740 mmHg 38%
    18:00 +3°C° 0 mm 6 mps 740 mmHg 44%
    19:00 +2°C° 0 mm 5 mps 740 mmHg 51%
    20:00 +1°C° 0 mm 4 mps 741 mmHg 57%
    21:00 +1°C° 0 mm 4 mps 741 mmHg 61%
    22:00 0°C° 0 mm 5 mps 741 mmHg 64%
    23:00 0°C° 0 mm 5 mps 742 mmHg 67%

    15 April, Wednesday

    Time Temperature Precipitation Wind Pressure Humidity
    00:00 -1°C° 0 mm 5 mps 742 mmHg 69%
    01:00 -1°C° 0 mm 5 mps 742 mmHg 71%
    02:00 -3°C° 0 mm 6 mps 742 mmHg 72%
    03:00 -3°C° 0 mm 6 mps 742 mmHg 74%
    04:00 -4°C° 0 mm 6 mps 743 mmHg 76%
    05:00 -4°C° 0 mm 6 mps 743 mmHg 78%
    06:00 -4°C° 0 mm 7 mps 743 mmHg 73%
    07:00 -4°C° 0 mm 8 mps 744 mmHg 67%
    08:00 -2°C° 0 mm 8 mps 744 mmHg 62%
    09:00 -1°C° 0 mm 8 mps 744 mmHg 58%
    10:00 +1°C° 0 mm 8 mps 744 mmHg 54%
    11:00 +2°C° 0 mm 8 mps 744 mmHg 51%
    12:00 +4°C° 0 mm 8 mps 744 mmHg 48%
    13:00 +5°C° 0 mm 8 mps 744 mmHg 45%
    14:00 +5°C° 0 mm 8 mps 744 mmHg 42%
    15:00 +6°C° 0 mm 8 mps 744 mmHg 42%
    16:00 +6°C° 0 mm 8 mps 744 mmHg 42%
    17:00 +6°C° 0 mm 8 mps 743 mmHg 42%
    18:00 +5°C° 0 mm 6 mps 743 mmHg 48%
    19:00 +5°C° 0 mm 5 mps 743 mmHg 53%
    20:00 +4°C° 0 mm 4 mps 743 mmHg 58%
    21:00 +3°C° 0 mm 4 mps 743 mmHg 60%
    22:00 +3°C° 0 mm 4 mps 743 mmHg 62%
    23:00 +2°C° 0 mm 5 mps 743 mmHg 63%
    Show more